SHIJIAN-28 (SJ-28)

Last updated on Fri Dec 19 2025 00:02:05 GMT+0000 (Coordinated Universal Time)

1 66549U 25277A 25352.83332176 -.00000330 00000+0 00000+0 0 9998 2 66549 5.0036 274.8616 0001022 136.6506 93.0064 1.00269090 348
UTC large
Height (km)
Speed (km/s)
/
Latitude / Longitude
Inclination (degrees)
Orbital Period (minutes)
Azimuth
Elevation
Range (km)
Doppler Factor

Next 0 passes for location: London (51.5072 / 0.1276)

Sorry there are no passes over London.